| time (UTC) | temp F | wind direction | speed knots | gust knots | rain 1hr in | rain 24hr in | rain mn in | humidity % | barometer mb |
| 20260510100522 | 70 | 348 | 0.0 | 0.0 | 0.00 | 0.00 | 0.00 | 99 | 1013.8 |
| 20260510100019 | 70 | 348 | 0.0 | 0.0 | 0.00 | 0.00 | 0.00 | 99 | 1013.5 |
| 20260510095515 | 70 | 348 | 0.0 | 0.0 | 0.00 | 0.00 | 0.00 | 99 | 1013.8 |
| 20260510095014 | 70 | 348 | 0.0 | 0.0 | 0.00 | 0.00 | 0.00 | 99 | 1013.7 |
| 20260510094508 | 70 | 348 | 0.0 | 0.0 | 0.00 | 0.00 | 0.00 | 99 | 1013.4 |
| 20260510094004 | 70 | 348 | 0.0 | 0.0 | 0.00 | 0.00 | 0.00 | 99 | 1013.3 |
| 20260510093500 | 70 | 349 | 0.0 | 0.0 | 0.00 | 0.00 | 0.00 | 99 | 1013.4 |
| 20260510092957 | 70 | 348 | 0.0 | 0.0 | 0.00 | 0.00 | 0.00 | 99 | 1013.0 |
| 20260510092454 | 70 | 348 | 0.0 | 0.0 | 0.00 | 0.00 | 0.00 | 99 | 1013.1 |
| 20260510091949 | 70 | 348 | 0.0 | 0.0 | 0.00 | 0.00 | 0.00 | 99 | 1013.1 |
| 20260510091446 | 70 | 348 | 0.0 | 0.0 | 0.00 | 0.00 | 0.00 | 99 | 1012.7 |
| 20260510090942 | 70 | 348 | 0.0 | 0.0 | 0.00 | 0.00 | 0.00 | 99 | 1012.8 |
| 20260510090439 | 70 | 348 | 0.0 | 0.0 | 0.00 | 0.00 | 0.00 | 99 | 1012.9 |
| 20260510085934 | 70 | 348 | 0.0 | 0.0 | 0.00 | 0.00 | 0.00 | 99 | 1012.9 |
| 20260510085429 | 70 | 348 | 0.0 | 0.0 | 0.00 | 0.00 | 0.00 | 99 | 1012.8 |
| 20260510084925 | 70 | 348 | 0.0 | 0.0 | 0.00 | 0.00 | 0.00 | 99 | 1013.0 |
| 20260510084422 | 70 | 348 | 0.0 | 0.0 | 0.00 | 0.00 | 0.00 | 99 | 1012.8 |
| 20260510083919 | 70 | 348 | 0.0 | 0.0 | 0.00 | 0.00 | 0.00 | 99 | 1012.7 |
| 20260510083415 | 70 | 348 | 0.0 | 0.0 | 0.00 | 0.00 | 0.00 | 99 | 1012.8 |
| 20260510082910 | 70 | 348 | 0.0 | 0.0 | 0.00 | 0.00 | 0.00 | 99 | 1012.6 |
| 20260510082409 | 70 | 349 | 0.0 | 0.0 | 0.00 | 0.00 | 0.00 | 99 | 1012.7 |
| 20260510081907 | 70 | 350 | 0.0 | 0.0 | 0.00 | 0.00 | 0.00 | 99 | 1012.9 |
| 20260510081403 | 70 | 291 | 0.0 | 0.0 | 0.00 | 0.00 | 0.00 | 99 | 1012.8 |
| 20260510080901 | 70 | 291 | 0.0 | 0.0 | 0.00 | 0.00 | 0.00 | 99 | 1012.8 |
| 20260510080354 | 70 | 268 | 0.0 | 0.0 | 0.00 | 0.00 | 0.00 | 99 | 1012.9 |
| 20260510075852 | 70 | 268 | 0.0 | 0.0 | 0.00 | 0.00 | 0.00 | 99 | 1012.8 |
| 20260510075349 | 70 | 268 | 0.0 | 0.0 | 0.00 | 0.00 | 0.00 | 99 | 1012.6 |
| 20260510074846 | 70 | 268 | 0.0 | 0.0 | 0.00 | 0.00 | 0.00 | 99 | 1012.7 |
| 20260510074343 | 69 | 267 | 0.0 | 0.0 | 0.00 | 0.00 | 0.00 | 99 | 1012.5 |
| 20260510073839 | 69 | 267 | 0.0 | 0.0 | 0.00 | 0.00 | 0.00 | 99 | 1012.4 |
| 20260510073335 | 69 | 267 | 0.0 | 0.0 | 0.00 | 0.00 | 0.00 | 99 | 1012.5 |
| 20260510072831 | 70 | 267 | 0.0 | 0.0 | 0.00 | 0.00 | 0.00 | 99 | 1012.5 |
| 20260510072328 | 69 | 267 | 0.0 | 0.0 | 0.00 | 0.00 | 0.00 | 99 | 1012.7 |
| 20260510071824 | 69 | 267 | 0.0 | 0.0 | 0.00 | 0.00 | 0.00 | 99 | 1012.5 |
| 20260510071321 | 70 | 267 | 0.0 | 0.0 | 0.00 | 0.00 | 0.00 | 99 | 1012.5 |
| 20260510070820 | 69 | 267 | 0.0 | 0.0 | 0.00 | 0.00 | 0.00 | 99 | 1012.5 |
| 20260510070311 | 70 | 267 | 0.0 | 0.0 | 0.00 | 0.00 | 0.00 | 99 | 1012.4 |
| 20260510065810 | 69 | 267 | 0.0 | 0.0 | 0.00 | 0.00 | 0.00 | 99 | 1012.6 |
| 20260510065307 | 70 | 267 | 0.0 | 0.0 | 0.00 | 0.00 | 0.00 | 99 | 1012.8 |
| 20260510064804 | 69 | 267 | 0.0 | 0.0 | 0.00 | 0.00 | 0.00 | 99 | 1012.6 |
| 20260510064256 | 70 | 267 | 0.0 | 0.0 | 0.00 | 0.00 | 0.00 | 99 | 1012.6 |
| 20260510063752 | 70 | 267 | 0.0 | 0.0 | 0.00 | 0.00 | 0.00 | 99 | 1012.5 |
| 20260510063248 | 70 | 267 | 0.0 | 0.0 | 0.00 | 0.00 | 0.00 | 99 | 1012.8 |
| 20260510062745 | 70 | 268 | 0.0 | 0.0 | 0.00 | 0.00 | 0.00 | 99 | 1012.8 |
| 20260510062240 | 70 | 267 | 0.0 | 0.0 | 0.00 | 0.00 | 0.00 | 99 | 1013.0 |
| 20260510061736 | 69 | 271 | 0.0 | 0.0 | 0.00 | 0.00 | 0.00 | 99 | 1013.0 |
| 20260510061233 | 70 | 271 | 0.0 | 0.0 | 0.00 | 0.00 | 0.00 | 99 | 1012.9 |
| 20260510060729 | 70 | 271 | 0.0 | 0.0 | 0.00 | 0.00 | 0.00 | 99 | 1013.1 |
| 20260510060226 | 70 | 271 | 0.0 | 0.0 | 0.00 | 0.00 | 0.00 | 99 | 1013.3 |
| 20260510055723 | 70 | 271 | 0.0 | 0.0 | 0.00 | 0.00 | 0.00 | 99 | 1013.2 |
| 20260510055221 | 70 | 271 | 0.0 | 0.0 | 0.00 | 0.00 | 0.00 | 99 | 1013.4 |
| 20260510054716 | 70 | 270 | 0.0 | 0.0 | 0.00 | 0.00 | 0.00 | 99 | 1013.3 |
| 20260510054212 | 70 | 270 | 0.0 | 0.0 | 0.00 | 0.00 | 0.00 | 99 | 1013.4 |
| 20260510053712 | 70 | 270 | 0.0 | 0.0 | 0.00 | 0.00 | 0.00 | 99 | 1013.5 |
| 20260510053209 | 70 | 273 | 0.0 | 0.0 | 0.00 | 0.00 | 0.00 | 99 | 1013.3 |
| 20260510052704 | 70 | 273 | 0.0 | 0.0 | 0.00 | 0.00 | 0.00 | 99 | 1013.6 |
| 20260510052200 | 70 | 273 | 0.0 | 0.0 | 0.00 | 0.00 | 0.00 | 99 | 1013.8 |
| 20260510051656 | 70 | 273 | 0.0 | 0.0 | 0.00 | 0.00 | 0.00 | 99 | 1013.9 |
| 20260510051153 | 70 | 272 | 0.0 | 0.0 | 0.00 | 0.00 | 0.00 | 99 | 1013.9 |
| 20260510050650 | 70 | 272 | 0.0 | 0.0 | 0.00 | 0.00 | 0.00 | 99 | 1013.9 |
| 20260510050148 | 70 | 270 | 0.0 | 0.0 | 0.00 | 0.00 | 0.00 | 99 | 1014.0 |
| 20260510045644 | 70 | 274 | 0.0 | 0.0 | 0.00 | 0.00 | 0.00 | 99 | 1014.3 |
| 20260510045141 | 70 | 280 | 0.0 | 0.0 | 0.00 | 0.00 | 0.00 | 99 | 1014.0 |
| 20260510044637 | 71 | 264 | 0.0 | 0.9 | 0.00 | 0.00 | 0.00 | 99 | 1014.1 |
| 20260510044135 | 71 | 282 | 0.0 | 0.0 | 0.00 | 0.00 | 0.00 | 99 | 1013.9 |
| 20260510043630 | 71 | 282 | 0.0 | 0.0 | 0.00 | 0.00 | 0.00 | 99 | 1014.1 |
| 20260510043127 | 71 | 282 | 0.0 | 0.0 | 0.00 | 0.00 | 0.00 | 99 | 1014.0 |
| 20260510042625 | 70 | 283 | 0.0 | 0.0 | 0.00 | 0.00 | 0.00 | 99 | 1014.1 |
| 20260510042120 | 70 | 287 | 0.0 | 0.0 | 0.00 | 0.00 | 0.00 | 99 | 1014.2 |
| 20260510041618 | 70 | 287 | 0.0 | 0.0 | 0.00 | 0.00 | 0.00 | 99 | 1014.2 |
| 20260510041114 | 71 | 287 | 0.0 | 0.0 | 0.00 | 0.00 | 0.00 | 99 | 1014.1 |
| 20260510040611 | 71 | 287 | 0.0 | 0.0 | 0.00 | 0.00 | 0.00 | 99 | 1014.0 |
| 20260510040107 | 71 | 287 | 0.0 | 0.0 | 0.00 | 0.00 | 0.00 | 99 | 1014.0 |
| 20260510035603 | 71 | 287 | 0.0 | 0.0 | 0.00 | 0.25 | 0.25 | 99 | 1014.0 |
| 20260510035058 | 71 | 287 | 0.0 | 0.0 | 0.00 | 0.25 | 0.25 | 99 | 1014.4 |
| 20260510034556 | 71 | 287 | 0.0 | 0.0 | 0.00 | 0.25 | 0.25 | 99 | 1014.1 |
| 20260510034053 | 71 | 267 | 0.0 | 0.0 | 0.00 | 0.25 | 0.25 | 99 | 1014.5 |
| 20260510033549 | 71 | 252 | 0.0 | 0.0 | 0.00 | 0.25 | 0.25 | 99 | 1014.4 |
| 20260510033047 | 71 | 252 | 0.0 | 0.0 | 0.00 | 0.25 | 0.25 | 99 | 1014.5 |
| 20260510032543 | 71 | 252 | 0.0 | 0.0 | 0.00 | 0.25 | 0.25 | 99 | 1014.3 |
| 20260510032038 | 71 | 252 | 0.0 | 0.0 | 0.00 | 0.25 | 0.25 | 99 | 1014.3 |
| 20260510031533 | 71 | 252 | 0.0 | 0.0 | 0.00 | 0.25 | 0.25 | 99 | 1014.4 |
| 20260510031029 | 71 | 252 | 0.0 | 0.0 | 0.00 | 0.25 | 0.25 | 99 | 1014.2 |
| 20260510030526 | 71 | 252 | 0.0 | 0.0 | 0.00 | 0.25 | 0.25 | 99 | 1014.0 |
| 20260510030023 | 71 | 252 | 0.0 | 0.0 | 0.00 | 0.25 | 0.25 | 99 | 1014.1 |
| 20260510025520 | 71 | 252 | 0.0 | 0.0 | 0.00 | 0.25 | 0.25 | 99 | 1014.1 |
| 20260510025018 | 71 | 252 | 0.0 | 0.0 | 0.00 | 0.25 | 0.25 | 99 | 1013.9 |
| 20260510024514 | 71 | 252 | 0.0 | 0.0 | 0.00 | 0.25 | 0.25 | 99 | 1014.0 |
| 20260510024010 | 71 | 252 | 0.0 | 0.0 | 0.00 | 0.25 | 0.25 | 99 | 1013.9 |
| 20260510023506 | 71 | 251 | 0.0 | 0.0 | 0.00 | 0.25 | 0.25 | 99 | 1013.6 |
| 20260510023004 | 71 | 251 | 0.0 | 0.0 | 0.00 | 0.25 | 0.25 | 99 | 1013.4 |
| 20260510022502 | 71 | 251 | 0.0 | 0.0 | 0.00 | 0.25 | 0.25 | 99 | 1013.5 |
| 20260510022003 | 71 | 251 | 0.0 | 0.0 | 0.00 | 0.25 | 0.25 | 99 | 1013.2 |
| 20260510021500 | 71 | 251 | 0.0 | 0.0 | 0.00 | 0.25 | 0.25 | 99 | 1013.0 |
| 20260510020956 | 71 | 251 | 0.0 | 0.0 | 0.00 | 0.25 | 0.25 | 99 | 1013.1 |
| 20260510020451 | 71 | 251 | 0.0 | 0.0 | 0.00 | 0.25 | 0.25 | 99 | 1012.9 |
| 20260510015946 | 71 | 251 | 0.0 | 0.0 | 0.00 | 0.25 | 0.25 | 99 | 1013.1 |
| 20260510015437 | 71 | 251 | 0.0 | 0.0 | 0.00 | 0.25 | 0.25 | 99 | 1012.8 |
| 20260510014932 | 71 | 250 | 0.0 | 0.0 | 0.00 | 0.25 | 0.25 | 99 | 1012.8 |
| 20260510014430 | 71 | 239 | 0.0 | 0.0 | 0.00 | 0.25 | 0.25 | 99 | 1012.8 |
| 20260510013926 | 71 | 334 | 0.0 | 0.0 | 0.00 | 0.25 | 0.25 | 99 | 1012.8 |
| 20260510013421 | 71 | 108 | 0.9 | 2.6 | 0.00 | 0.25 | 0.25 | 99 | 1012.7 |
| 20260510012917 | 71 | 62 | 0.0 | 0.0 | 0.00 | 0.25 | 0.25 | 99 | 1012.8 |
| 20260510012412 | 71 | 315 | 0.0 | 0.0 | 0.00 | 0.25 | 0.25 | 99 | 1012.8 |
| 20260510011907 | 71 | 315 | 0.0 | 0.0 | 0.00 | 0.25 | 0.25 | 99 | 1012.8 |
| 20260510011402 | 71 | 317 | 0.0 | 0.0 | 0.00 | 0.25 | 0.25 | 99 | 1012.7 |
| 20260510010858 | 71 | 316 | 0.0 | 0.0 | 0.00 | 0.25 | 0.25 | 99 | 1012.5 |
| 20260510010356 | 71 | 316 | 0.0 | 0.0 | 0.00 | 0.25 | 0.25 | 99 | 1012.4 |
| 20260510005852 | 71 | 317 | 0.0 | 0.0 | 0.00 | 0.25 | 0.25 | 99 | 1012.6 |
| 20260510005349 | 71 | 316 | 0.0 | 0.0 | 0.00 | 0.25 | 0.25 | 99 | 1012.7 |
| 20260510004846 | 71 | 317 | 0.0 | 0.9 | 0.00 | 0.25 | 0.25 | 99 | 1012.7 |
| 20260510004344 | 71 | 316 | 0.0 | 0.0 | 0.00 | 0.25 | 0.25 | 99 | 1012.8 |
| 20260510003842 | 71 | 316 | 0.0 | 0.0 | 0.00 | 0.25 | 0.25 | 99 | 1012.8 |
| 20260510003338 | 71 | 321 | 0.0 | 0.0 | 0.00 | 0.25 | 0.25 | 99 | 1012.8 |
| 20260510002837 | 71 | 336 | 0.0 | 0.0 | 0.00 | 0.25 | 0.25 | 99 | 1012.9 |
| 20260510002334 | 72 | 339 | 0.0 | 0.9 | 0.00 | 0.25 | 0.25 | 99 | 1012.9 |
| 20260510001831 | 72 | 59 | 0.0 | 0.9 | 0.00 | 0.25 | 0.25 | 99 | 1012.7 |
| 20260510001329 | 72 | 359 | 0.0 | 0.0 | 0.00 | 0.25 | 0.25 | 99 | 1012.9 |
| 20260510000825 | 72 | 4 | 0.0 | 0.0 | 0.05 | 0.25 | 0.25 | 99 | 1013.0 |
| 20260510000322 | 72 | 354 | 0.0 | 0.0 | 0.05 | 0.25 | 0.25 | 99 | 1012.9 |
| 20260509235819 | 72 | 0 | 0.0 | 0.0 | 0.00 | 0.24 | 0.24 | 99 | 1012.8 |
| 20260509235315 | 72 | 4 | 0.0 | 0.0 | 0.00 | 0.24 | 0.24 | 99 | 1012.7 |
| 20260509234811 | 72 | 14 | 0.0 | 0.0 | 0.00 | 0.24 | 0.24 | 99 | 1012.7 |
| 20260509234308 | 72 | 6 | 0.0 | 0.0 | 0.00 | 0.24 | 0.24 | 99 | 1012.8 |
| 20260509233806 | 72 | 89 | 0.0 | 0.0 | 0.00 | 0.24 | 0.24 | 99 | 1012.7 |
| 20260509233304 | 72 | 89 | 0.0 | 0.0 | 0.00 | 0.24 | 0.24 | 99 | 1012.8 |
| 20260509232759 | 72 | 71 | 0.9 | 1.7 | 0.00 | 0.24 | 0.24 | 99 | 1012.6 |
| 20260509232257 | 72 | 91 | 0.0 | 0.0 | 0.00 | 0.24 | 0.24 | 99 | 1012.7 |
| 20260509231753 | 72 | 92 | 0.0 | 0.0 | 0.00 | 0.24 | 0.24 | 99 | 1012.5 |
| 20260509231250 | 72 | 92 | 0.0 | 0.0 | 0.00 | 0.24 | 0.24 | 99 | 1012.4 |
| 20260509230748 | 72 | 128 | 0.0 | 0.9 | 0.00 | 0.24 | 0.24 | 99 | 1012.4 |
| 20260509230244 | 72 | 132 | 0.9 | 1.7 | 0.00 | 0.24 | 0.24 | 99 | 1012.4 |
| 20260509225740 | 72 | 70 | 0.9 | 1.7 | 0.00 | 0.24 | 0.24 | 99 | 1012.6 |
| 20260509225236 | 72 | 86 | 0.0 | 0.0 | 0.00 | 0.24 | 0.24 | 99 | 1012.9 |
| 20260509224732 | 72 | 128 | 0.0 | 0.9 | 0.00 | 0.24 | 0.24 | 99 | 1012.6 |
| 20260509224230 | 72 | 94 | 0.9 | 3.5 | 0.00 | 0.24 | 0.24 | 99 | 1012.7 |
| 20260509223726 | 72 | 126 | 0.0 | 1.7 | 0.00 | 0.24 | 0.24 | 99 | 1012.7 |
| 20260509223223 | 72 | 104 | 2.6 | 3.5 | 0.00 | 0.24 | 0.24 | 99 | 1012.8 |
| 20260509222720 | 72 | 93 | 0.9 | 2.6 | 0.00 | 0.24 | 0.24 | 99 | 1012.8 |
| 20260509222215 | 72 | 83 | 0.9 | 3.5 | 0.00 | 0.24 | 0.24 | 99 | 1013.0 |
| 20260509221711 | 72 | 83 | 2.6 | 2.6 | 0.00 | 0.24 | 0.24 | 99 | 1012.8 |
| 20260509221207 | 72 | 73 | 2.6 | 6.1 | 0.00 | 0.24 | 0.24 | 99 | 1012.4 |
| 20260509220703 | 72 | 84 | 0.9 | 1.7 | 0.00 | 0.24 | 0.24 | 99 | 1012.7 |
| 20260509220200 | 72 | 99 | 0.9 | 2.6 | 0.00 | 0.24 | 0.24 | 99 | 1012.8 |
| 20260509215656 | 72 | 87 | 1.7 | 5.2 | 0.00 | 0.24 | 0.24 | 99 | 1012.5 |
| 20260509215153 | 72 | 91 | 6.1 | 7.8 | 0.00 | 0.24 | 0.24 | 99 | 1012.5 |
| 20260509214650 | 72 | 97 | 4.3 | 5.2 | 0.00 | 0.24 | 0.24 | 99 | 1012.6 |
| 20260509214146 | 72 | 100 | 1.7 | 6.1 | 0.00 | 0.24 | 0.24 | 99 | 1012.6 |
| 20260509213644 | 72 | 109 | 5.2 | 7.8 | 0.00 | 0.24 | 0.24 | 99 | 1012.4 |
| 20260509213139 | 73 | 110 | 4.3 | 7.8 | 0.00 | 0.24 | 0.24 | 99 | 1012.6 |
| 20260509212637 | 74 | 97 | 4.3 | 5.2 | 0.00 | 0.24 | 0.24 | 99 | 1012.4 |
| 20260509212133 | 74 | 95 | 1.7 | 2.6 | 0.00 | 0.24 | 0.24 | 99 | 1012.4 |
| 20260509211629 | 74 | 75 | 2.6 | 3.5 | 0.00 | 0.24 | 0.24 | 99 | 1012.5 |
| 20260509211126 | 74 | 87 | 1.7 | 3.5 | 0.00 | 0.24 | 0.24 | 99 | 1012.3 |
| 20260509210622 | 75 | 48 | 0.9 | 2.6 | 0.00 | 0.24 | 0.24 | 99 | 1012.1 |
| 20260509210114 | 75 | 19 | 0.9 | 5.2 | 0.00 | 0.24 | 0.24 | 99 | 1012.1 |
| 20260509205608 | 75 | 77 | 1.7 | 2.6 | 0.00 | 0.24 | 0.24 | 99 | 1012.1 |
| 20260509205103 | 75 | 42 | 1.7 | 2.6 | 0.07 | 0.24 | 0.24 | 99 | 1012.4 |
| 20260509204600 | 75 | 15 | 0.0 | 0.9 | 0.07 | 0.24 | 0.24 | 99 | 1012.2 |
| 20260509204057 | 75 | 348 | 0.0 | 0.0 | 0.05 | 0.23 | 0.23 | 99 | 1012.1 |
| 20260509203552 | 74 | 349 | 0.0 | 0.9 | 0.12 | 0.23 | 0.23 | 99 | 1011.9 |
| 20260509203050 | 74 | 39 | 1.7 | 2.6 | 0.07 | 0.22 | 0.22 | 99 | 1011.9 |
| 20260509202545 | 75 | 350 | 0.0 | 0.9 | 0.00 | 0.21 | 0.21 | 99 | 1012.1 |
| 20260509202041 | 75 | 345 | 1.7 | 1.7 | 0.00 | 0.21 | 0.21 | 99 | 1012.3 |
| 20260509201536 | 75 | 333 | 0.0 | 0.0 | 0.00 | 0.21 | 0.21 | 99 | 1012.2 |
| 20260509201034 | 75 | 334 | 0.0 | 0.0 | 0.00 | 0.21 | 0.21 | 99 | 1012.0 |
| 20260509200533 | 75 | 357 | 0.0 | 0.0 | 0.00 | 0.21 | 0.21 | 99 | 1012.3 |
| 20260509200030 | 75 | 357 | 0.0 | 0.0 | 0.05 | 0.21 | 0.21 | 98 | 1012.2 |
| 20260509195525 | 75 | 11 | 0.0 | 0.0 | 0.19 | 0.21 | 0.21 | 98 | 1012.2 |
| 20260509195019 | 75 | 3 | 0.0 | 0.0 | 0.42 | 0.20 | 0.20 | 98 | 1011.9 |
| 20260509194514 | 75 | 27 | 0.9 | 2.6 | 0.35 | 0.18 | 0.18 | 98 | 1012.3 |
| 20260509194012 | 75 | 44 | 0.0 | 0.0 | 0.19 | 0.13 | 0.13 | 97 | 1012.5 |
| 20260509193507 | 75 | 67 | 0.0 | 0.0 | 0.19 | 0.11 | 0.11 | 97 | 1012.2 |
| 20260509193004 | 75 | 68 | 0.0 | 0.9 | 0.50 | 0.11 | 0.11 | 96 | 1012.3 |
| 20260509192500 | 76 | 68 | 0.0 | 1.7 | 0.31 | 0.08 | 0.08 | 95 | 1012.5 |
| 20260509191955 | 76 | 220 | 0.0 | 0.0 | 0.05 | 0.03 | 0.03 | 94 | 1012.4 |
| 20260509191450 | 76 | 220 | 0.0 | 0.9 | 0.05 | 0.03 | 0.03 | 94 | 1012.0 |
| 20260509190946 | 76 | 220 | 1.7 | 1.7 | 0.07 | 0.02 | 0.02 | 93 | 1012.0 |
| 20260509190443 | 76 | 219 | 0.9 | 0.9 | 0.07 | 0.02 | 0.02 | 92 | 1012.1 |
| 20260509185941 | 76 | 221 | 1.7 | 1.7 | 0.00 | 0.01 | 0.01 | 91 | 1012.2 |
| 20260509185438 | 77 | 203 | 0.0 | 2.6 | 0.00 | 0.01 | 0.01 | 89 | 1012.1 |
| 20260509184935 | 78 | 165 | 0.9 | 1.7 | 0.00 | 0.01 | 0.01 | 87 | 1012.1 |
| 20260509184433 | 78 | 214 | 0.0 | 0.9 | 0.00 | 0.01 | 0.01 | 87 | 1012.3 |
| 20260509183929 | 78 | 193 | 1.7 | 1.7 | 0.00 | 0.01 | 0.01 | 86 | 1012.1 |
| 20260509183423 | 79 | 174 | 0.9 | 3.5 | 0.00 | 0.01 | 0.01 | 85 | 1012.2 |
| 20260509182920 | 79 | 210 | 0.9 | 1.7 | 0.00 | 0.01 | 0.01 | 85 | 1012.1 |
| 20260509182417 | 80 | 249 | 2.6 | 3.5 | 0.00 | 0.01 | 0.01 | 84 | 1012.1 |
| 20260509181914 | 80 | 166 | 0.0 | 1.7 | 0.00 | 0.01 | 0.01 | 84 | 1012.4 |
| 20260509181412 | 79 | 162 | 0.9 | 3.5 | 0.00 | 0.01 | 0.01 | 85 | 1012.1 |
| 20260509180909 | 79 | 172 | 2.6 | 3.5 | 0.00 | 0.01 | 0.01 | 84 | 1012.3 |
| 20260509180404 | 79 | 207 | 0.0 | 1.7 | 0.00 | 0.01 | 0.01 | 84 | 1012.4 |
| 20260509175901 | 81 | 195 | 0.9 | 5.2 | 0.00 | 0.01 | 0.01 | 82 | 1012.6 |
| 20260509175357 | 82 | 249 | 0.9 | 1.7 | 0.00 | 0.01 | 0.01 | 80 | 1012.6 |
| 20260509174853 | 83 | 316 | 0.9 | 1.7 | 0.00 | 0.01 | 0.01 | 78 | 1012.6 |
| 20260509174349 | 83 | 319 | 0.0 | 0.9 | 0.00 | 0.01 | 0.01 | 78 | 1012.6 |
| 20260509173845 | 82 | 312 | 0.0 | 0.9 | 0.00 | 0.01 | 0.01 | 78 | 1012.8 |
| 20260509173340 | 82 | 328 | 0.9 | 2.6 | 0.00 | 0.01 | 0.01 | 79 | 1012.7 |
| 20260509172837 | 82 | 302 | 0.9 | 1.7 | 0.00 | 0.01 | 0.01 | 81 | 1012.8 |
| 20260509172334 | 81 | 271 | 0.0 | 1.7 | 0.00 | 0.01 | 0.01 | 82 | 1012.7 |
| 20260509171830 | 81 | 218 | 0.9 | 1.7 | 0.00 | 0.01 | 0.01 | 82 | 1012.7 |
| 20260509171325 | 81 | 211 | 1.7 | 1.7 | 0.00 | 0.01 | 0.01 | 82 | 1012.8 |
| 20260509170822 | 80 | 211 | 0.9 | 2.6 | 0.00 | 0.01 | 0.01 | 83 | 1012.5 |
| 20260509170318 | 80 | 230 | 1.7 | 2.6 | 0.00 | 0.01 | 0.01 | 83 | 1012.5 |
| 20260509165818 | 81 | 293 | 0.9 | 1.7 | 0.00 | 0.01 | 0.01 | 83 | 1012.9 |
| 20260509165312 | 80 | 294 | 0.0 | 0.9 | 0.00 | 0.01 | 0.01 | 83 | 1012.6 |
| 20260509164809 | 80 | 293 | 1.7 | 2.6 | 0.00 | 0.01 | 0.01 | 83 | 1012.7 |
| 20260509164306 | 80 | 251 | 0.0 | 1.7 | 0.00 | 0.01 | 0.01 | 83 | 1012.7 |
| 20260509163802 | 80 | 287 | 0.0 | 1.7 | 0.00 | 0.01 | 0.01 | 84 | 1012.9 |
| 20260509163258 | 79 | 298 | 0.9 | 1.7 | 0.00 | 0.01 | 0.01 | 84 | 1012.9 |
| 20260509162757 | 80 | 292 | 2.6 | 2.6 | 0.00 | 0.01 | 0.01 | 83 | 1013.1 |
| 20260509162251 | 79 | 221 | 0.0 | 0.9 | 0.00 | 0.01 | 0.01 | 85 | 1013.1 |
| 20260509161747 | 80 | 270 | 1.7 | 2.6 | 0.00 | 0.01 | 0.01 | 85 | 1013.3 |
| 20260509161243 | 80 | 280 | 0.9 | 2.6 | 0.00 | 0.01 | 0.01 | 85 | 1013.1 |
| 20260509160738 | 79 | 279 | 0.0 | 0.9 | 0.00 | 0.01 | 0.01 | 85 | 1013.0 |
| 20260509160230 | 79 | 226 | 0.9 | 3.5 | 0.00 | 0.01 | 0.01 | 85 | 1013.0 |
| 20260509155725 | 80 | 293 | 0.0 | 0.9 | 0.00 | 0.01 | 0.01 | 83 | 1013.0 |
| 20260509155222 | 79 | 294 | 0.0 | 1.7 | 0.00 | 0.01 | 0.01 | 84 | 1013.1 |
| 20260509154718 | 79 | 294 | 0.9 | 0.9 | 0.00 | 0.01 | 0.01 | 84 | 1012.9 |
| 20260509154215 | 79 | 285 | 0.9 | 0.9 | 0.00 | 0.01 | 0.01 | 85 | 1013.0 |
| 20260509153712 | 78 | 268 | 0.0 | 0.0 | 0.00 | 0.01 | 0.01 | 86 | 1012.8 |
| 20260509153208 | 78 | 268 | 0.0 | 0.0 | 0.00 | 0.01 | 0.01 | 86 | 1013.3 |
| 20260509152704 | 77 | 266 | 0.0 | 0.0 | 0.00 | 0.01 | 0.01 | 87 | 1013.2 |
| 20260509152201 | 78 | 262 | 0.9 | 0.9 | 0.00 | 0.01 | 0.01 | 87 | 1012.9 |
| 20260509151658 | 78 | 264 | 0.0 | 0.9 | 0.00 | 0.01 | 0.01 | 87 | 1013.0 |
| 20260509151155 | 78 | 261 | 2.6 | 2.6 | 0.00 | 0.01 | 0.01 | 86 | 1013.3 |
| 20260509150653 | 78 | 252 | 0.9 | 1.7 | 0.00 | 0.01 | 0.01 | 86 | 1013.5 |
| 20260509150151 | 78 | 261 | 0.0 | 0.9 | 0.00 | 0.01 | 0.01 | 86 | 1013.6 |
| 20260509145647 | 77 | 308 | 0.0 | 0.9 | 0.00 | 0.01 | 0.01 | 88 | 1013.5 |
| 20260509145142 | 77 | 86 | 0.0 | 1.7 | 0.00 | 0.01 | 0.01 | 89 | 1013.4 |
| 20260509144639 | 77 | 54 | 1.7 | 2.6 | 0.00 | 0.01 | 0.01 | 88 | 1013.5 |
| 20260509144136 | 77 | 330 | 0.9 | 1.7 | 0.00 | 0.01 | 0.01 | 88 | 1013.5 |
| 20260509143633 | 76 | 352 | 0.0 | 1.7 | 0.00 | 0.01 | 0.01 | 89 | 1013.6 |
| 20260509143131 | 76 | 333 | 0.0 | 1.7 | 0.00 | 0.01 | 0.01 | 89 | 1013.3 |
| 20260509142626 | 76 | 338 | 1.7 | 3.5 | 0.00 | 0.01 | 0.01 | 90 | 1013.4 |
| 20260509142123 | 76 | 342 | 0.9 | 1.7 | 0.00 | 0.01 | 0.01 | 89 | 1013.0 |
| 20260509141619 | 76 | 9 | 0.0 | 0.0 | 0.00 | 0.01 | 0.01 | 90 | 1013.0 |
| 20260509141115 | 76 | 251 | 1.7 | 1.7 | 0.00 | 0.01 | 0.01 | 90 | 1013.1 |
| 20260509140612 | 75 | 3 | 0.9 | 1.7 | 0.00 | 0.01 | 0.01 | 91 | 1013.3 |
| 20260509140110 | 75 | 13 | 1.7 | 1.7 | 0.00 | 0.01 | 0.01 | 92 | 1013.5 |
| 20260509135607 | 74 | 359 | 0.9 | 0.9 | 0.00 | 0.01 | 0.01 | 93 | 1013.3 |
| 20260509135105 | 74 | 47 | 1.7 | 2.6 | 0.00 | 0.01 | 0.01 | 93 | 1013.4 |
| 20260509134602 | 74 | 19 | 1.7 | 2.6 | 0.00 | 0.01 | 0.01 | 93 | 1013.4 |
| 20260509134059 | 74 | 350 | 1.7 | 2.6 | 0.00 | 0.01 | 0.01 | 93 | 1013.1 |
| 20260509133556 | 74 | 330 | 0.0 | 0.9 | 0.00 | 0.01 | 0.01 | 94 | 1013.1 |
| 20260509133053 | 73 | 341 | 1.7 | 3.5 | 0.00 | 0.01 | 0.01 | 94 | 1013.0 |
| 20260509132552 | 73 | 9 | 1.7 | 1.7 | 0.00 | 0.01 | 0.01 | 94 | 1012.9 |
| 20260509132050 | 73 | 13 | 1.7 | 1.7 | 0.00 | 0.01 | 0.01 | 94 | 1012.7 |
| 20260509131545 | 73 | 336 | 0.0 | 0.0 | 0.00 | 0.01 | 0.01 | 95 | 1012.7 |
| 20260509131042 | 73 | 329 | 0.0 | 0.0 | 0.00 | 0.01 | 0.01 | 95 | 1012.7 |
| 20260509130538 | 73 | 322 | 0.0 | 0.9 | 0.00 | 0.01 | 0.01 | 96 | 1012.7 |
| 20260509130035 | 72 | 284 | 0.0 | 0.0 | 0.00 | 0.01 | 0.01 | 97 | 1012.7 |
| 20260509125531 | 72 | 291 | 0.0 | 0.0 | 0.00 | 0.01 | 0.01 | 97 | 1012.5 |
| 20260509125028 | 72 | 18 | 1.7 | 1.7 | 0.00 | 0.01 | 0.01 | 98 | 1012.9 |
| 20260509124524 | 72 | 43 | 0.9 | 1.7 | 0.00 | 0.01 | 0.01 | 98 | 1012.8 |
| 20260509124021 | 72 | 12 | 0.0 | 0.0 | 0.00 | 0.01 | 0.01 | 98 | 1012.4 |
| 20260509123520 | 71 | 310 | 0.0 | 0.0 | 0.00 | 0.01 | 0.01 | 99 | 1012.3 |
| 20260509123010 | 71 | 330 | 0.0 | 0.0 | 0.00 | 0.01 | 0.01 | 99 | 1012.6 |
| 20260509122507 | 71 | 30 | 2.6 | 3.5 | 0.00 | 0.01 | 0.01 | 99 | 1012.5 |
| 20260509122004 | 70 | 23 | 1.7 | 2.6 | 0.00 | 0.01 | 0.01 | 99 | 1012.3 |
| 20260509121500 | 70 | 343 | 0.0 | 2.6 | 0.00 | 0.01 | 0.01 | 99 | 1012.3 |
| 20260509120958 | 70 | 339 | 0.0 | 0.0 | 0.00 | 0.01 | 0.01 | 99 | 1012.0 |
| 20260509120456 | 70 | 323 | 0.9 | 1.7 | 0.00 | 0.01 | 0.01 | 99 | 1012.3 |
| 20260509115954 | 70 | 299 | 0.0 | 0.9 | 0.00 | 0.01 | 0.01 | 99 | 1012.1 |
| 20260509115451 | 70 | 280 | 0.0 | 0.0 | 0.00 | 0.01 | 0.01 | 99 | 1012.4 |
| 20260509114948 | 69 | 307 | 0.0 | 0.0 | 0.00 | 0.01 | 0.01 | 99 | 1012.3 |
| 20260509114446 | 69 | 291 | 0.0 | 0.0 | 0.00 | 0.01 | 0.01 | 99 | 1011.9 |
| 20260509113946 | 69 | 298 | 0.0 | 0.0 | 0.00 | 0.01 | 0.01 | 99 | 1012.1 |
| 20260509113442 | 69 | 297 | 0.0 | 1.7 | 0.00 | 0.01 | 0.01 | 99 | 1011.6 |
| 20260509112939 | 69 | 291 | 0.0 | 0.0 | 0.00 | 0.01 | 0.01 | 99 | 1011.5 |
| 20260509112437 | 69 | 282 | 0.0 | 1.7 | 0.00 | 0.01 | 0.01 | 99 | 1011.5 |
| 20260509111933 | 68 | 272 | 0.0 | 2.6 | 0.00 | 0.01 | 0.01 | 99 | 1011.6 |
| 20260509111431 | 68 | 303 | 0.0 | 1.7 | 0.00 | 0.01 | 0.01 | 99 | 1011.3 |
| 20260509110928 | 68 | 274 | 0.0 | 0.9 | 0.00 | 0.01 | 0.01 | 99 | 1011.3 |
| 20260509110423 | 68 | 259 | 0.0 | 3.5 | 0.00 | 0.01 | 0.01 | 99 | 1011.0 |
| 20260509105922 | 68 | 267 | 0.9 | 1.7 | 0.00 | 0.01 | 0.01 | 99 | 1011.1 |
| 20260509105420 | 68 | 256 | 1.7 | 3.5 | 0.00 | 0.01 | 0.01 | 99 | 1010.8 |
| 20260509104917 | 68 | 262 | 1.7 | 5.2 | 0.00 | 0.01 | 0.01 | 99 | 1010.8 |
| 20260509104414 | 68 | 240 | 0.0 | 2.6 | 0.00 | 0.01 | 0.01 | 99 | 1011.0 |
| 20260509103911 | 68 | 260 | 0.9 | 2.6 | 0.00 | 0.01 | 0.01 | 99 | 1011.0 |
| 20260509103408 | 68 | 252 | 0.9 | 3.5 | 0.00 | 0.01 | 0.01 | 99 | 1011.2 |
| 20260509102907 | 68 | 250 | 0.9 | 5.2 | 0.00 | 0.01 | 0.01 | 99 | 1011.1 |
| 20260509102404 | 67 | 255 | 1.7 | 5.2 | 0.00 | 0.01 | 0.01 | 99 | 1011.1 |
| 20260509101859 | 67 | 261 | 2.6 | 5.2 | 0.00 | 0.01 | 0.01 | 99 | 1011.0 |
| 20260509101355 | 67 | 248 | 1.7 | 3.5 | 0.00 | 0.01 | 0.01 | 99 | 1011.0 |
| 20260509100854 | 67 | 259 | 1.7 | 5.2 | 0.00 | 0.01 | 0.01 | 99 | 1011.0 |